Weather History for Aitkin, MN

Change the Weather History Date:

Monday, January 14, 2013

  Actual Average Record
Temperature  
Mean Temperature 6 °F -  
Max Temperature 12 °F 18 °F 36 °F (1959)
Min Temperature 0 °F -3 °F -40 °F (1972)
Degree Days  
Heating Degree Days 59    
Moisture  
Dew Point -3 °F    
Average Humidity 65    
Maximum Humidity 72    
Minimum Humidity 53    
Precipitation  
Precipitation 0.00 in - - ()
Sea Level Pressure  
Sea Level Pressure 30.23 in    
Wind  
Wind Speed 4 mph (SW)    
Max Wind Speed 9 mph    
Max Gust Speed -    
Visibility 10 miles    
Events Snow    
Averages and records for this station are not official NWS values.
T = Trace of Precipitation, MM = Missing Value Source: NWS Daily Summary

Daily Weather History Graph

Daily Weather History Graph

Search for Another Location

Airport:

Trip Planner

Search our weather history database for the weather conditions in past years. The results will help you decide how hot, cold, wet, or windy it might be!

Date:

Astronomy

Jan. 14, 2013 Rise Set
Actual Time 7:54 AM CST 4:53 PM CST
Civil Twilight 7:20 AM CST 5:27 PM CST
Nautical Twilight 6:43 AM CST 6:04 PM CST
Astronomical Twilight 6:07 AM CST 6:40 PM CST
Moon 9:14 AM CST (1/14) 8:55 PM CST (1/14)
Length of Visible Light 10h 06m
Length of Day
8h 58m
Waxing Crescent, 11% of the Moon is Illuminated
Jan 14
Waxing Crescent
Jan 18
First Quarter
Jan 26
Full
Feb 3
Last Quarter
Feb 10
New

Hourly Weather History & Observations

Time (CST) Temp. Windchill Dew Point Humidity Pressure Visibility Wind Dir Wind Speed Gust Speed Precip Events Conditions
12:13 AM 6.8 °F -0.1 °F -0.4 °F 72% 30.13 in 10.0 mi West 3.5 mph - N/A   Overcast
12:32 AM 6.8 °F -2.0 °F -0.4 °F 72% 30.13 in 10.0 mi West 4.6 mph - N/A   Overcast
12:53 AM 6.8 °F -2.0 °F -0.4 °F 72% 30.14 in 10.0 mi West 4.6 mph - N/A   Overcast
1:13 AM 6.8 °F -2.0 °F -0.4 °F 72% 30.14 in 10.0 mi West 4.6 mph - N/A   Overcast
1:32 AM 6.8 °F -2.0 °F -0.4 °F 72% 30.15 in 10.0 mi West 4.6 mph - N/A   Overcast
1:53 AM 6.8 °F -3.5 °F -2.2 °F 67% 30.15 in 10.0 mi WNW 5.8 mph - N/A   Overcast
2:12 AM 6.8 °F - -2.2 °F 67% 30.16 in 10.0 mi Calm Calm - N/A   Overcast
2:52 AM 6.8 °F -0.1 °F -2.2 °F 67% 30.17 in 10.0 mi WNW 3.5 mph - N/A   Mostly Cloudy
3:12 AM 5.0 °F -6.9 °F -4.0 °F 66% 30.18 in 10.0 mi NW 6.9 mph - N/A   Clear
3:33 AM 3.2 °F -4.2 °F -5.8 °F 66% 30.19 in 10.0 mi NW 3.5 mph - N/A   Clear
3:52 AM 1.4 °F - -5.8 °F 72% 30.19 in 10.0 mi Calm Calm - N/A   Clear
4:13 AM 1.4 °F -8.3 °F -5.8 °F 72% 30.19 in 10.0 mi NW 4.6 mph - N/A   Clear
4:32 AM 1.4 °F - -7.6 °F 66% 30.19 in 10.0 mi Calm Calm - N/A   Clear
4:53 AM 1.4 °F - -7.6 °F 66% 30.19 in 10.0 mi Calm Calm - N/A   Clear
5:13 AM -0.4 °F - -7.6 °F 72% 30.20 in 10.0 mi Calm Calm - N/A   Mostly Cloudy
5:32 AM 1.4 °F - -5.8 °F 72% 30.20 in 10.0 mi Calm Calm - N/A   Overcast
6:13 AM 1.4 °F - -5.8 °F 72% 30.22 in 10.0 mi Calm Calm - N/A   Overcast
6:32 AM 1.4 °F - -5.8 °F 72% 30.22 in 10.0 mi Calm Calm - N/A   Overcast
6:52 AM 3.2 °F - -5.8 °F 66% 30.23 in 10.0 mi Calm Calm - N/A   Overcast
7:13 AM 1.4 °F - -5.8 °F 72% 30.25 in 10.0 mi Calm Calm - N/A   Mostly Cloudy
7:32 AM 1.4 °F - -5.8 °F 72% 30.25 in 10.0 mi Calm Calm - N/A   Mostly Cloudy
7:52 AM 1.4 °F - -5.8 °F 72% 30.26 in 10.0 mi Calm Calm - N/A Snow Light Snow
8:01 AM -0.4 °F - -7.6 °F 72% 30.26 in 10.0 mi Calm Calm - N/A   Scattered Clouds
8:33 AM 1.4 °F - -5.8 °F 72% 30.27 in 10.0 mi Calm Calm - N/A   Clear
8:53 AM 1.4 °F -6.2 °F -5.8 °F 72% 30.27 in 10.0 mi WSW 3.5 mph - N/A   Clear
9:12 AM 3.2 °F -7.8 °F -5.8 °F 66% 30.28 in 10.0 mi WSW 5.8 mph - N/A   Clear
9:33 AM 5.0 °F -5.6 °F -5.8 °F 61% 30.28 in 10.0 mi West 5.8 mph - N/A   Clear
9:53 AM 5.0 °F -4.1 °F -5.8 °F 61% 30.29 in 10.0 mi West 4.6 mph - N/A   Clear
10:12 AM 6.8 °F -2.0 °F -5.8 °F 56% 30.29 in 10.0 mi WSW 4.6 mph - N/A   Clear
10:32 AM 6.8 °F -4.8 °F -5.8 °F 56% 30.29 in 10.0 mi West 6.9 mph - N/A   Clear
10:53 AM 6.8 °F -3.5 °F -5.8 °F 56% 30.30 in 10.0 mi WSW 5.8 mph - N/A   Clear
11:12 AM 8.6 °F 0.1 °F -4.0 °F 57% 30.29 in 10.0 mi WSW 4.6 mph - N/A   Clear
11:32 AM 8.6 °F -2.6 °F -4.0 °F 57% 30.29 in 10.0 mi SW 6.9 mph - N/A   Clear
11:52 AM 8.6 °F -4.7 °F -2.2 °F 62% 30.28 in 10.0 mi SW 9.2 mph - N/A   Clear
12:12 PM 8.6 °F -2.6 °F -4.0 °F 57% 30.28 in 10.0 mi WSW 6.9 mph - N/A   Clear
12:33 PM 10.4 °F 0.8 °F -2.2 °F 57% 30.27 in 10.0 mi WSW 5.8 mph - N/A   Clear
12:52 PM 10.4 °F -1.5 °F -2.2 °F 57% 30.27 in 10.0 mi SW 8.1 mph - N/A   Clear
1:12 PM 10.4 °F -0.4 °F -2.2 °F 57% 30.26 in 10.0 mi West 6.9 mph - N/A   Mostly Cloudy
1:33 PM 12.2 °F 2.9 °F -2.2 °F 53% 30.26 in 10.0 mi West 5.8 mph - N/A   Mostly Cloudy
2:12 PM 12.2 °F -0.2 °F -0.4 °F 57% 30.26 in 10.0 mi WSW 9.2 mph - N/A   Scattered Clouds
2:52 PM 12.2 °F 4.3 °F -2.2 °F 53% 30.26 in 10.0 mi SSW 4.6 mph - N/A   Clear
3:13 PM 12.2 °F - -2.2 °F 53% 30.26 in 10.0 mi Calm Calm - N/A   Clear
3:32 PM 12.2 °F 6.1 °F -2.2 °F 53% 30.26 in 10.0 mi SSW 3.5 mph - N/A   Clear
3:52 PM 12.2 °F 2.9 °F -2.2 °F 53% 30.25 in 10.0 mi SW 5.8 mph - N/A   Clear
4:32 PM 12.2 °F 4.3 °F -2.2 °F 53% 30.25 in 10.0 mi SW 4.6 mph - N/A   Clear
4:52 PM 10.4 °F 4.0 °F -2.2 °F 57% 30.25 in 10.0 mi SSW 3.5 mph - N/A   Clear
5:12 PM 8.6 °F -2.6 °F -2.2 °F 62% 30.25 in 10.0 mi SSE 6.9 mph - N/A   Clear
5:32 PM 8.6 °F -2.6 °F -0.4 °F 67% 30.26 in 10.0 mi South 6.9 mph - N/A   Clear
5:53 PM 8.6 °F -1.3 °F -0.4 °F 67% 30.25 in 10.0 mi South 5.8 mph - N/A   Scattered Clouds
6:12 PM 8.6 °F -1.3 °F -0.4 °F 67% 30.25 in 10.0 mi South 5.8 mph - N/A   Mostly Cloudy
6:32 PM 8.6 °F -2.6 °F -0.4 °F 67% 30.25 in 10.0 mi South 6.9 mph - N/A   Scattered Clouds
6:53 PM 8.6 °F -2.6 °F -0.4 °F 67% 30.25 in 10.0 mi SSW 6.9 mph - N/A   Mostly Cloudy
7:12 PM 8.6 °F -1.3 °F -0.4 °F 67% 30.25 in 10.0 mi SSW 5.8 mph - N/A   Overcast
7:32 PM 8.6 °F -1.3 °F -2.2 °F 62% 30.25 in 10.0 mi South 5.8 mph - N/A   Overcast
7:53 PM 8.6 °F -1.3 °F -0.4 °F 67% 30.24 in 10.0 mi South 5.8 mph - N/A   Overcast
8:12 PM 8.6 °F -2.6 °F -0.4 °F 67% 30.24 in 10.0 mi South 6.9 mph - N/A   Overcast
8:32 PM 8.6 °F -1.3 °F -0.4 °F 67% 30.24 in 10.0 mi SSW 5.8 mph - N/A   Overcast
8:53 PM 8.6 °F -2.6 °F -0.4 °F 67% 30.24 in 10.0 mi SSW 6.9 mph - N/A   Overcast
9:12 PM 8.6 °F -1.3 °F -0.4 °F 67% 30.23 in 10.0 mi South 5.8 mph - N/A   Overcast
9:32 PM 8.6 °F -1.3 °F -0.4 °F 67% 30.23 in 10.0 mi South 5.8 mph - N/A   Overcast
10:12 PM 8.6 °F 2.0 °F -0.4 °F 67% 30.21 in 10.0 mi South 3.5 mph - N/A   Overcast
10:33 PM 8.6 °F -1.3 °F -0.4 °F 67% 30.20 in 10.0 mi SSE 5.8 mph - N/A   Overcast
10:52 PM 10.4 °F 0.8 °F -0.4 °F 62% 30.20 in 10.0 mi South 5.8 mph - N/A   Overcast
11:12 PM 10.4 °F 0.8 °F -0.4 °F 62% 30.19 in 10.0 mi South 5.8 mph - N/A   Overcast
11:33 PM 10.4 °F 4.0 °F 1.4 °F 67% 30.19 in 10.0 mi South 3.5 mph - N/A   Overcast
11:52 PM 10.4 °F 0.8 °F 1.4 °F 67% 30.18 in 7.0 mi SSE 5.8 mph - N/A Snow Light Snow